SCP
0 0 0 0 0 0 0 0 0 0 -0 -0 -0 -0 -0 -0 -0 -0 -0 -0 0 -0 0 -0 -0 -0 -0 -0 -0 -0 -0 -0 -0 -0 -0 -0 -0 -0 -0 0 -0 -0 -0
0 -0 0 0 0 0 0 0 0 -0 -0 -0 -0 -0 -0 -0 -0 -0 -0 -0 -0 -0 0 -0 -0 -0 -0 -0 -0 -0 -0 -0 0 -0 -0 -0 -0 -0 -0 0 0 -0 -0
0 0 0 0 -0 0 0 0 -0 0 0 -0 -0 -0 -0 -0 -0 -0 -0 -0 -0 -0 -0 -0 -0 -0 -0 -0 -0 -0 -0 -0 -0 -0 -0 0 -0 -0 -0 -0 -0 0 0
0 0 0 0 -0 0 0 -0 -0 -0 -0 -0 -0 -0 -0 -0 -0 -0 -0 -0 -0 -0 -0 -0 -0 -0 -0 -0 -0 -0 -0 -0 -0 -0 0 0 0 -0 -0 -0 0 -0 0
0 0 0 0 -0 -0 -0 -0 -0 -0 -0 -0 -0 -0 0 -0 -0 -0 -0 -0 -0 -0 -0 -0 -0 -0 -0 -0 -0 -0 -0 -0 -0 -0 -0 0 0 0 -0 -0 0 0 0
0 0 -0 -0 -0 -0 -0 -0 -0 -0 -0 -0 -0 -0 -0 -0 -0 -0 -0 -0 -0 -0 -0 -0 -0 -0 -0 -0 -0 -0 -0 -0 -0 -0 0 0 0 0 0 0 0 0 0
0 0 -0 -0 -0 -0 -0 -0 -0 -0 -0 -0 -0 -0 -0 -0 -0 -0 -0 -0 -0 -0 -0 -0 -0 -0 -0 -0 -0 -0 -0 -0 -0 0 0 0 0 0 0 0 0 0 0
-0 -0 -0 -0 -0 -0 -0 -0 -0 -0 -0 -0 -0 -0 -0 -0 -0 -0 -0 -0 -0 -0 -0 -0 -0 -0 -0 -0 -0 -0 -0 -0 0 0 0 0 0 -0 0 0 0 0 0
0 0 -0 -0 -0 -0 -0 -0 -0 -0 -0 -0 -0 -0 -0 -0 -0 -0 -0 -0 -0 -0 -0 -0 -0 -0 -0 -0 0 0 0 0 0 0 0 0 -0 -0 0 0 0 0 0
0 0 -0 -0 -0 -0 -0 -0 -0 -0 -0 -0 -0 -0 -0 -0 -0 -0 -0 -0 -0 -0 -0 -0 -0 -0 -0 -0 0 0 0 0 0 0 0 0 0 -0 0 0 0 0 0
0 0 -0 -0 -0 -0 -0 -0 -0 -0 -0 -0 -0 -0 -0 -0 -0 -0 -0 0 0 -0 -0 -0 -0 -0 -0 -0 0 0 -0 0 0 0 0 0 0 -0 -0 -0 0 0 0
-0 -0 -0 -0 -0 -0 0 0 0 0 -0 -0 0 -0 -0 -0 -0 0 0 0 0 0 0 0 -0 -0 0 -0 0 0 0 -0 0 0 0 0 0 0 -0 0 -0 0 -0
-0 -0 -0 -0 -0 -0 -0 0 -0 0 -0 -0 -0 -0 -0 -0 -0 0 -0 0 0 0 0 0 0 -0 0 0 0 0 0 0 -0 -0 0 0 0 0 -0 0 0 -0 0
-0 -0 -0 -0 -0 -0 -0 0 0 0 -0 -0 -0 0 0 -0 -0 -0 0 0 -0 -0 -0 -0 -0 -0 0 0 0 0 0 0 0 0 0 -0 -0 0 0 0 -0 0 0
-0 -0 -0 -0 -0 0 0 0 -0 0 -0 -0 -0 -0 -0 -0 -0 -0 -0 0 0 -0 -0 -0 -0 0 0 0 -0 0 0 0 0 0 0 -0 -0 -0 -0 -0 -0 0 0
0 -0 -0 -0 0 0 0 0 0 0 -0 -0 -0 -0 -0 -0 -0 -0 -0 -0 0 -0 -0 -0 -0 -0 0 -0 -0 0 0 0 0 0 0 0 -0 -0 -0 -0 -0 -0 0
0 0 -0 0 0 0 0 -0 -0 -0 -0 -0 -0 -0 -0 -0 -0 -0 -0 -0 0 0 -0 -0 -0 -0 0 -0 0 -0 0 0 0 0 0 0 0 0 -0 0 0 0 0
0 0 0 -0 0 -0 -0 -0 -0 -0 -0 -0 -0 0 0 0 -0 -0 -0 -0 -0 -0 0 0 0 -0 -0 -0 -0 -0 -0 -0 0 0 0 0 0 -0 0 0 0 0 -0
-0 0 0 -0 -0 -0 -0 -0 -0 -0 0 -0 0 -0 -0 0 0 0 -0 -0 -0 -0 -0 -0 -0 -0 0 -0 0 -0 -0 0 0 -0 0 0 0 0 -0 -0 0 0 -0
-0 -0 -0 0 -0 -0 -0 -0 -0 -0 0 0 0 0 0 0 0 -0 0 -0 -0 0 -0 -0 -0 -0 0 0 0 -0 0 0 0 0 -0 -0 0 0 0 0 -0 -0 -0
-0 -0 -0 -0 -0 -0 0 -0 -0 -0 0 0 0 0 0 0 -0 -0 -0 -0 -0 -0 -0 -0 -0 -0 0 -0 -0 0 -0 0 0 0 -0 -0 -0 0 -0 -0 -0 -0 -0
0 -0 -0 -0 -0 -0 -0 0 0 0 0 0 0 0 0 -0 0 -0 -0 -0 -0 -0 -0 -0 -0 0 0 0 0 0 -0 -0 0 0 0 0 -0 -0 -0 -0 -0 -0 -0
-0 -0 0 0 0 0 0 0 0 0 0 0 0 0 0 0 0 0 -0 -0 0 0 0 0 0 -0 -0 -0 -0 0 0 0 0 0 0 0 0 0 0 -0 -0 -0 -0
0 -0 -0 -0 -0 0 -0 0 0 0 0 0 0 0 0 0 0 0 -0 0 0 0 0 -0 0 0 0 -0 0 0 0 0 0 0 0 0 0 0 0 0 0 -0 -0
0 0 0 0 0 0 0 0 0 0 0 -0 0 0 0 0 0 0 0 0 0 0 0 0 0 0 0 0 0 0 0 0 0 0 -0 0 0 0 0 0 0 0 0
-0 0 0 0 0 0 0 -0 0 0 -0 0 0 0 0 0 0 0 0 0 0 0 0 0 0 0 0 0 0 0 0 0 0 0 0 0 0 0 0 0 0 0 0
Wind_Speed_500mb
42 47 50 41 41 42 43 44 43 40 38 37 34 30 27 30 30 28 25 22 20 18 20 22 22 20 21 23 22 23 23 27 24 23 22 21 20 19 18 17 19 17 17
48 45 43 40 41 39 40 41 40 39 37 34 30 27 24 25 23 21 19 18 20 22 23 23 22 23 23 22 25 27 29 27 25 23 21 20 18 16 13 14 14 17 16
50 46 36 36 33 34 36 35 33 32 30 29 27 26 23 21 18 17 20 22 23 23 21 21 23 23 23 25 28 29 27 26 25 23 22 21 17 17 16 16 15 15 16
48 48 38 32 31 35 35 34 33 30 29 28 27 25 21 18 15 16 19 24 25 27 23 26 25 26 27 26 29 30 28 27 26 23 22 22 17 18 16 16 15 15 15
44 39 36 33 33 37 36 32 30 29 29 26 24 22 18 15 17 18 20 22 23 25 24 24 23 24 23 26 28 28 25 24 23 19 17 18 19 17 16 15 13 14 14
40 35 33 34 35 35 32 29 28 27 26 22 20 17 16 15 17 17 20 20 22 24 24 24 22 24 23 22 19 18 20 20 21 21 18 17 16 14 14 12 11 11 13
39 32 32 33 32 31 30 27 25 23 23 21 18 15 13 13 16 14 17 18 19 22 24 21 20 21 20 17 17 16 13 12 16 15 16 17 14 13 11 13 12 11 11
39 34 33 33 34 31 27 24 22 21 20 19 17 14 13 14 16 13 16 22 21 22 21 20 20 20 20 18 15 12 12 12 9 5 7 9 12 8 10 8 10 10 10
34 32 34 34 33 30 26 22 20 19 19 18 16 14 14 11 14 15 12 17 20 20 20 18 20 21 20 17 14 10 7 4 2 2 2 1 6 5 2 5 8 5 8
34 33 33 32 31 28 23 20 21 21 19 18 17 14 10 8 11 13 13 12 14 15 17 15 17 19 21 18 15 12 10 5 4 9 10 6 10 7 6 7 7 9 10
34 33 33 32 28 24 21 20 19 21 20 19 18 13 7 6 7 9 11 10 12 12 12 16 18 17 18 18 18 17 12 9 12 24 20 17 16 16 17 15 13 13 15
39 36 32 28 23 23 22 20 20 21 24 22 23 15 10 9 10 11 13 14 16 16 20 19 20 21 20 21 23 23 23 19 20 22 22 22 19 29 32 28 22 21 19
36 36 31 27 23 20 18 18 19 21 22 22 24 21 14 9 11 12 15 19 22 23 20 23 23 19 22 24 24 26 25 25 23 15 15 20 26 26 29 35 31 28 25
34 33 30 25 22 17 16 18 19 20 19 18 23 27 23 15 14 15 18 18 19 22 27 28 28 28 26 25 26 28 29 30 29 28 25 19 15 20 26 34 33 32 32
30 31 28 27 22 19 18 11 22 20 23 20 23 26 28 25 23 23 21 23 22 27 30 31 32 31 31 30 33 34 35 34 35 33 27 23 19 18 22 30 35 37 39
28 26 26 22 23 25 25 6 5 10 18 20 22 24 27 32 30 29 29 25 26 25 33 37 40 38 37 40 41 45 45 45 43 38 33 30 24 17 21 29 32 31 36
31 25 23 20 21 23 22 15 10 5 7 12 19 22 27 34 36 35 35 33 28 28 26 31 39 45 48 46 49 48 46 50 51 47 38 34 30 26 22 24 30 33 33
29 30 25 25 23 22 24 21 16 16 15 15 20 24 29 34 35 36 39 38 34 32 34 37 36 40 41 43 45 43 41 44 46 47 48 44 36 33 30 25 26 31 36
23 27 28 27 25 22 24 25 26 24 27 28 29 36 32 25 33 40 40 38 36 39 43 41 42 42 45 45 44 40 39 44 45 42 42 48 44 40 38 31 26 28 31
25 26 27 29 29 27 26 27 29 30 32 24 22 30 25 18 31 36 34 42 43 45 46 45 43 42 41 39 36 36 34 36 40 39 42 42 48 45 41 38 32 31 33
28 28 28 30 29 31 27 25 26 26 25 15 11 18 19 21 28 19 31 25 33 38 39 42 39 41 44 40 39 37 37 34 35 35 35 41 45 50 46 47 42 36 32
27 30 29 26 26 29 30 29 31 30 28 25 22 19 22 25 34 23 26 24 24 26 29 36 40 38 36 32 34 28 16 17 25 29 30 32 37 41 47 51 49 45 38
29 31 32 31 29 26 27 28 32 35 37 34 26 21 18 23 26 24 25 23 27 23 22 40 37 34 33 32 29 25 9 10 8 17 23 28 33 40 45 44 50 51 46
23 28 26 27 23 20 18 16 19 26 34 22 22 27 26 22 20 13 11 11 14 18 22 23 20 30 32 34 33 35 36 37 16 14 19 24 20 20 33 49 48 52 52
14 22 20 27 28 22 18 11 21 23 25 13 19 21 20 17 17 17 16 15 13 15 18 17 20 24 27 32 31 34 36 39 41 34 30 26 27 27 24 25 38 51 54
8 5 23 18 21 22 25 12 13 28 27 21 20 20 15 14 16 16 16 18 19 14 12 16 18 18 19 25 30 35 42 37 37 37 40 41 34 30 33 36 38 40 43
Wind_Direction_500mb
127 132 139 139 133 133 131 129 131 133 133 133 130 124 120 123 125 125 128 129 125 122 135 134 130 121 124 118 109 107 112 111 111 115 115 112 106 107 110 108 97 101 111
134 135 138 141 135 136 135 129 127 126 128 130 129 127 123 120 118 111 113 126 134 137 132 133 132 126 122 120 115 110 106 106 109 110 109 110 112 111 111 103 105 103 102
139 133 139 150 143 141 141 137 130 129 130 131 134 127 127 119 117 111 121 123 121 131 131 131 131 123 124 120 118 111 108 108 111 112 111 106 107 99 102 102 102 102 108
144 144 152 149 150 145 143 141 140 139 137 138 139 135 131 129 128 132 135 130 126 124 130 121 119 119 121 125 119 116 116 111 105 105 105 101 104 106 105 100 98 101 103
149 153 155 144 141 141 141 142 142 140 140 142 140 138 132 137 138 139 139 138 138 130 128 130 133 132 132 125 119 110 110 107 103 106 100 98 112 107 105 102 103 108 112
149 149 152 151 146 146 145 146 143 143 143 144 147 143 144 151 151 148 149 154 145 144 135 132 136 132 133 129 117 111 107 103 103 104 105 104 109 110 112 118 115 111 113
149 152 158 157 157 155 149 146 144 150 153 160 164 159 163 159 154 167 152 149 148 143 143 143 148 148 145 140 128 119 114 110 117 96 89 93 95 106 116 114 117 123 122
155 153 161 164 168 163 160 160 164 171 170 174 176 169 177 168 167 186 164 162 161 160 158 164 164 165 159 159 151 128 117 103 123 139 105 90 86 93 116 121 124 123 134
160 162 164 167 174 176 177 181 185 191 184 181 179 179 175 178 167 189 184 173 177 179 176 176 177 182 182 184 180 160 140 102 51 37 233 158 87 51 81 142 144 156 160
167 166 166 169 172 175 183 192 198 199 195 192 188 174 180 199 187 189 189 180 172 179 189 195 194 194 199 201 205 206 210 228 327 323 299 278 258 294 261 230 229 202 197
173 171 172 173 179 185 191 199 202 203 201 204 197 185 184 236 216 195 198 202 194 203 205 209 207 201 204 213 226 243 257 257 305 307 285 282 280 267 259 245 239 227 213
176 176 179 181 190 195 204 211 213 209 206 206 205 202 225 239 240 232 229 240 247 231 232 226 218 216 223 227 234 246 253 240 263 286 283 275 281 271 252 244 238 230 219
178 186 190 192 197 206 221 229 224 213 211 211 211 219 232 242 240 259 265 255 247 247 228 231 230 225 234 235 240 245 248 246 243 282 291 272 273 277 240 237 239 227 223
192 195 200 200 202 204 216 234 236 232 232 235 229 233 239 253 268 295 276 274 259 250 240 238 235 236 238 242 246 252 251 251 251 267 277 272 279 267 245 235 226 236 232
193 197 200 204 196 188 207 189 212 215 230 244 250 250 253 264 274 283 291 267 266 255 248 245 243 241 244 250 254 257 258 258 254 260 266 265 271 263 238 229 230 234 242
187 189 195 197 197 203 234 165 133 203 240 250 264 266 269 268 274 278 281 279 270 267 256 251 249 252 253 258 262 264 262 261 260 262 258 257 257 253 240 236 235 236 236
210 208 206 207 224 225 238 245 248 241 260 268 276 282 279 275 278 280 279 278 276 266 264 260 253 251 255 266 270 269 268 263 260 257 255 252 247 244 250 242 242 240 239
218 222 225 228 236 254 258 256 261 270 273 267 269 279 284 273 271 274 275 272 271 270 264 260 256 254 255 256 263 267 267 265 263 255 252 244 242 238 239 250 248 242 242
231 235 243 248 253 260 271 274 271 271 275 288 312 326 322 309 284 272 270 271 269 265 261 259 259 259 255 257 262 265 265 268 266 256 251 244 239 237 237 237 250 255 247
245 250 251 256 262 267 271 276 280 281 287 314 342 4 344 345 320 304 295 272 264 261 263 262 264 264 265 261 264 259 263 263 263 258 248 247 242 238 238 239 245 254 254
249 251 254 259 264 267 272 278 289 300 310 321 304 315 321 327 354 294 271 269 278 271 271 269 265 267 265 264 266 269 269 269 263 257 250 244 240 237 239 241 243 246 247
247 251 256 260 268 270 278 284 292 299 309 323 319 309 313 308 323 280 280 305 291 286 282 278 268 267 271 268 263 258 280 271 266 248 245 241 240 240 240 244 240 240 240
259 259 259 260 262 273 285 297 308 313 319 323 314 319 318 306 311 302 305 308 308 299 332 277 264 261 269 269 264 246 262 263 270 251 253 250 247 246 242 239 240 238 237
251 253 264 277 277 286 302 305 326 327 325 321 316 316 310 321 321 325 306 310 296 295 279 290 276 262 261 262 266 260 252 256 271 275 259 248 244 258 252 240 241 240 242
278 241 263 267 272 258 280 302 317 330 337 297 315 313 310 316 312 316 321 323 325 307 289 287 282 267 264 261 267 267 265 258 255 251 270 255 265 266 251 243 242 242 247
333 307 250 321 287 277 281 315 322 303 339 313 298 285 281 278 280 296 311 320 323 326 313 296 301 294 276 265 265 259 263 261 256 251 262 274 277 268 262 256 245 240 238
Wind_Speed_850mb
42 47 50 41 41 42 43 44 43 40 38 37 34 30 27 30 30 28 25 22 20 18 20 22 22 20 21 23 22 23 23 27 24 23 22 21 20 19 18 17 19 17 17
48 45 43 40 41 39 40 41 40 39 37 34 30 27 24 25 23 21 19 18 20 22 23 23 22 23 23 22 25 27 29 27 25 23 21 20 18 16 13 14 14 17 16
50 46 36 36 33 34 36 35 33 32 30 29 27 26 23 21 18 17 20 22 23 23 21 21 23 23 23 25 28 29 27 26 25 23 22 21 17 17 16 16 15 15 16
48 48 38 32 31 35 35 34 33 30 29 28 27 25 21 18 15 16 19 24 25 27 23 26 25 26 27 26 29 30 28 27 26 23 22 22 17 18 16 16 15 15 15
44 39 36 33 33 37 36 32 30 29 29 26 24 22 18 15 17 18 20 22 23 25 24 24 23 24 23 26 28 28 25 24 23 19 17 18 19 17 16 15 13 14 14
40 35 33 34 35 35 32 29 28 27 26 22 20 17 16 15 17 17 20 20 22 24 24 24 22 24 23 22 19 18 20 20 21 21 18 17 16 14 14 12 11 11 13
39 32 32 33 32 31 30 27 25 23 23 21 18 15 13 13 16 14 17 18 19 22 24 21 20 21 20 17 17 16 13 12 16 15 16 17 14 13 11 13 12 11 11
39 34 33 33 34 31 27 24 22 21 20 19 17 14 13 14 16 13 16 22 21 22 21 20 20 20 20 18 15 12 12 12 9 5 7 9 12 8 10 8 10 10 10
34 32 34 34 33 30 26 22 20 19 19 18 16 14 14 11 14 15 12 17 20 20 20 18 20 21 20 17 14 10 7 4 2 2 2 1 6 5 2 5 8 5 8
34 33 33 32 31 28 23 20 21 21 19 18 17 14 10 8 11 13 13 12 14 15 17 15 17 19 21 18 15 12 10 5 4 9 10 6 10 7 6 7 7 9 10
34 33 33 32 28 24 21 20 19 21 20 19 18 13 7 6 7 9 11 10 12 12 12 16 18 17 18 18 18 17 12 9 12 24 20 17 16 16 17 15 13 13 15
39 36 32 28 23 23 22 20 20 21 24 22 23 15 10 9 10 11 13 14 16 16 20 19 20 21 20 21 23 23 23 19 20 22 22 22 19 29 32 28 22 21 19
36 36 31 27 23 20 18 18 19 21 22 22 24 21 14 9 11 12 15 19 22 23 20 23 23 19 22 24 24 26 25 25 23 15 15 20 26 26 29 35 31 28 25
34 33 30 25 22 17 16 18 19 20 19 18 23 27 23 15 14 15 18 18 19 22 27 28 28 28 26 25 26 28 29 30 29 28 25 19 15 20 26 34 33 32 32
30 31 28 27 22 19 18 11 22 20 23 20 23 26 28 25 23 23 21 23 22 27 30 31 32 31 31 30 33 34 35 34 35 33 27 23 19 18 22 30 35 37 39
28 26 26 22 23 25 25 6 5 10 18 20 22 24 27 32 30 29 29 25 26 25 33 37 40 38 37 40 41 45 45 45 43 38 33 30 24 17 21 29 32 31 36
31 25 23 20 21 23 22 15 10 5 7 12 19 22 27 34 36 35 35 33 28 28 26 31 39 45 48 46 49 48 46 50 51 47 38 34 30 26 22 24 30 33 33
29 30 25 25 23 22 24 21 16 16 15 15 20 24 29 34 35 36 39 38 34 32 34 37 36 40 41 43 45 43 41 44 46 47 48 44 36 33 30 25 26 31 36
23 27 28 27 25 22 24 25 26 24 27 28 29 36 32 25 33 40 40 38 36 39 43 41 42 42 45 45 44 40 39 44 45 42 42 48 44 40 38 31 26 28 31
25 26 27 29 29 27 26 27 29 30 32 24 22 30 25 18 31 36 34 42 43 45 46 45 43 42 41 39 36 36 34 36 40 39 42 42 48 45 41 38 32 31 33
28 28 28 30 29 31 27 25 26 26 25 15 11 18 19 21 28 19 31 25 33 38 39 42 39 41 44 40 39 37 37 34 35 35 35 41 45 50 46 47 42 36 32
27 30 29 26 26 29 30 29 31 30 28 25 22 19 22 25 34 23 26 24 24 26 29 36 40 38 36 32 34 28 16 17 25 29 30 32 37 41 47 51 49 45 38
29 31 32 31 29 26 27 28 32 35 37 34 26 21 18 23 26 24 25 23 27 23 22 40 37 34 33 32 29 25 9 10 8 17 23 28 33 40 45 44 50 51 46
23 28 26 27 23 20 18 16 19 26 34 22 22 27 26 22 20 13 11 11 14 18 22 23 20 30 32 34 33 35 36 37 16 14 19 24 20 20 33 49 48 52 52
14 22 20 27 28 22 18 11 21 23 25 13 19 21 20 17 17 17 16 15 13 15 18 17 20 24 27 32 31 34 36 39 41 34 30 26 27 27 24 25 38 51 54
8 5 23 18 21 22 25 12 13 28 27 21 20 20 15 14 16 16 16 18 19 14 12 16 18 18 19 25 30 35 42 37 37 37 40 41 34 30 33 36 38 40 43
Wind_Direction_850mb
127 132 139 139 133 133 131 129 131 133 133 133 130 124 120 123 125 125 128 129 125 122 135 134 130 121 124 118 109 107 112 111 111 115 115 112 106 107 110 108 97 101 111
134 135 138 141 135 136 135 129 127 126 128 130 129 127 123 120 118 111 113 126 134 137 132 133 132 126 122 120 115 110 106 106 109 110 109 110 112 111 111 103 105 103 102
139 133 139 150 143 141 141 137 130 129 130 131 134 127 127 119 117 111 121 123 121 131 131 131 131 123 124 120 118 111 108 108 111 112 111 106 107 99 102 102 102 102 108
144 144 152 149 150 145 143 141 140 139 137 138 139 135 131 129 128 132 135 130 126 124 130 121 119 119 121 125 119 116 116 111 105 105 105 101 104 106 105 100 98 101 103
149 153 155 144 141 141 141 142 142 140 140 142 140 138 132 137 138 139 139 138 138 130 128 130 133 132 132 125 119 110 110 107 103 106 100 98 112 107 105 102 103 108 112
149 149 152 151 146 146 145 146 143 143 143 144 147 143 144 151 151 148 149 154 145 144 135 132 136 132 133 129 117 111 107 103 103 104 105 104 109 110 112 118 115 111 113
149 152 158 157 157 155 149 146 144 150 153 160 164 159 163 159 154 167 152 149 148 143 143 143 148 148 145 140 128 119 114 110 117 96 89 93 95 106 116 114 117 123 122
155 153 161 164 168 163 160 160 164 171 170 174 176 169 177 168 167 186 164 162 161 160 158 164 164 165 159 159 151 128 117 103 123 139 105 90 86 93 116 121 124 123 134
160 162 164 167 174 176 177 181 185 191 184 181 179 179 175 178 167 189 184 173 177 179 176 176 177 182 182 184 180 160 140 102 51 37 233 158 87 51 81 142 144 156 160
167 166 166 169 172 175 183 192 198 199 195 192 188 174 180 199 187 189 189 180 172 179 189 195 194 194 199 201 205 206 210 228 327 323 299 278 258 294 261 230 229 202 197
173 171 172 173 179 185 191 199 202 203 201 204 197 185 184 236 216 195 198 202 194 203 205 209 207 201 204 213 226 243 257 257 305 307 285 282 280 267 259 245 239 227 213
176 176 179 181 190 195 204 211 213 209 206 206 205 202 225 239 240 232 229 240 247 231 232 226 218 216 223 227 234 246 253 240 263 286 283 275 281 271 252 244 238 230 219
178 186 190 192 197 206 221 229 224 213 211 211 211 219 232 242 240 259 265 255 247 247 228 231 230 225 234 235 240 245 248 246 243 282 291 272 273 277 240 237 239 227 223
192 195 200 200 202 204 216 234 236 232 232 235 229 233 239 253 268 295 276 274 259 250 240 238 235 236 238 242 246 252 251 251 251 267 277 272 279 267 245 235 226 236 232
193 197 200 204 196 188 207 189 212 215 230 244 250 250 253 264 274 283 291 267 266 255 248 245 243 241 244 250 254 257 258 258 254 260 266 265 271 263 238 229 230 234 242
187 189 195 197 197 203 234 165 133 203 240 250 264 266 269 268 274 278 281 279 270 267 256 251 249 252 253 258 262 264 262 261 260 262 258 257 257 253 240 236 235 236 236
210 208 206 207 224 225 238 245 248 241 260 268 276 282 279 275 278 280 279 278 276 266 264 260 253 251 255 266 270 269 268 263 260 257 255 252 247 244 250 242 242 240 239
218 222 225 228 236 254 258 256 261 270 273 267 269 279 284 273 271 274 275 272 271 270 264 260 256 254 255 256 263 267 267 265 263 255 252 244 242 238 239 250 248 242 242
231 235 243 248 253 260 271 274 271 271 275 288 312 326 322 309 284 272 270 271 269 265 261 259 259 259 255 257 262 265 265 268 266 256 251 244 239 237 237 237 250 255 247
245 250 251 256 262 267 271 276 280 281 287 314 342 4 344 345 320 304 295 272 264 261 263 262 264 264 265 261 264 259 263 263 263 258 248 247 242 238 238 239 245 254 254
249 251 254 259 264 267 272 278 289 300 310 321 304 315 321 327 354 294 271 269 278 271 271 269 265 267 265 264 266 269 269 269 263 257 250 244 240 237 239 241 243 246 247
247 251 256 260 268 270 278 284 292 299 309 323 319 309 313 308 323 280 280 305 291 286 282 278 268 267 271 268 263 258 280 271 266 248 245 241 240 240 240 244 240 240 240
259 259 259 260 262 273 285 297 308 313 319 323 314 319 318 306 311 302 305 308 308 299 332 277 264 261 269 269 264 246 262 263 270 251 253 250 247 246 242 239 240 238 237
251 253 264 277 277 286 302 305 326 327 325 321 316 316 310 321 321 325 306 310 296 295 279 290 276 262 261 262 266 260 252 256 271 275 259 248 244 258 252 240 241 240 242
278 241 263 267 272 258 280 302 317 330 337 297 315 313 310 316 312 316 321 323 325 307 289 287 282 267 264 261 267 267 265 258 255 251 270 255 265 266 251 243 242 242 247
333 307 250 321 287 277 281 315 322 303 339 313 298 285 281 278 280 296 311 320 323 326 313 296 301 294 276 265 265 259 263 261 256 251 262 274 277 268 262 256 245 240 238